Weather WX

World > North America > United States > Missouri

Chula, Missouri Regional Weather

Lat: 39.92N, Lon: 93.48W
Wx Zone: MOZ023
Warning FLW WEATHER ALERT - (More Info. Click Here) Warning
Feedback

Chula, MO Regional Weather

Expires:201906251900;;063534
ASUS43 KLSX 251757
RWRMO 

WEATHER SUMMARY FOR MISSOURI
NATIONAL WEATHER SERVICE SPRINGFIELD MO
100 PM CDT TUE JUN 25 2019

NOTE: "FAIR" INDICATES FEW OR NO CLOUDS BELOW 12,000 FEET WITH NO
       SIGNIFICANT WEATHER AND/OR OBSTRUCTIONS TO VISIBILITY.
       CURRENT SKY AND/OR WEATHER CONDITIONS ARE NOT AVAILABLE FOR
       CHILLICOTHE AND FARMINGTON.


MOZ001>031-035>038-043-044-053-054-251900-
...NORTHERN AND WESTERN MISSOURI...
  
CITY           SKY/WX    TMP DP  RH WIND       PRES   REMARKS
KANSAS CTY INT MOSUNNY   83  67  58 SW14G23   29.97S                  
6HR MIN TEMP:  66; 6HR MAX TEMP:  83;                                

LEE'S SUMMIT   SUNNY     84  64  50 SW13G22   29.99S                  
6HR MIN TEMP:  66; 6HR MAX TEMP:  84;                                

ST JOSEPH      SUNNY     85  67  54 SW14      29.93S                  
6HR MIN TEMP:  69; 6HR MAX TEMP:  85;                                

CHILLICOTHE      N/A     85  68  56 SW9       29.93S                  
6HR MIN TEMP:  69; 6HR MAX TEMP:  85;                                

     
$$

SKY/WX - Weather  TMP - Temperature  DP - Dew Point  RH - Relative Humidity
WIND - Wind Direction/Speed PRES - Barometric Pressure VSB - Visibility
WCI - Wind Chill Index E13G22 Wind - East Wind 13 mph/Gusts of 22 mph